FW8513 Weather Reports


Display with metric or nautical units.
time (UTC)temp
F
wind
direction
speed
MPH
gust
MPH
rain 1hr
in
rain 24hr
in
rain mn
in
humidity
%
barometer
mb
20260903014600 55 196 10.0 16.0 0.00 0.20 0.20 70 1006.6
20260903013054 56 198 9.0 15.0 0.00 0.20 0.20 70 1006.3
20260903011549 56 153 6.0 10.0 0.00 0.20 0.20 71 1005.9
20260903010048 57 130 3.0 9.0 0.00 0.20 0.20 72 1005.9
20260903004544 57 56 4.0 11.0 0.00 0.20 0.20 69 1004.3
20260903003042 57 202 6.0 16.0 0.02 0.20 0.20 66 1005.5
20260903001553 57 242 12.0 22.0 0.20 0.20 0.20 67 1005.9
20260903000049 57 248 15.0 27.0 0.20 0.20 0.20 68 1006.4
20260902234559 56 262 21.0 29.0 0.20 0.20 0.20 71 1005.8
20260902233044 57 276 19.0 42.0 0.18 0.18 0.18 69 1005.0
20260902231606 68 248 29.0 48.0 0.00 0.00 0.00 42 1005.2
20260902230057 81 212 5.0 13.0 0.00 0.00 0.00 29 1003.9
20260902224546 81 178 1.0 4.0 0.00 0.00 0.00 30 1002.8
20260902223051 80 186 4.0 8.0 0.00 0.00 0.00 29 1003.0
20260902221550 80 155 4.0 11.0 0.00 0.00 0.00 29 1003.2
20260902220057 81 0 2.0 9.0 0.00 0.00 0.00 29 1003.6
20260902214546 82 120 4.0 10.0 0.00 0.00 0.00 30 1003.8
20260902213046 81 142 4.0 15.0 0.00 0.00 0.00 30 1004.1
20260902211543 81 119 1.0 12.0 0.00 0.00 0.00 30 1004.3
20260902210042 81 186 1.0 12.0 0.00 0.00 0.00 29 1004.7
20260902204546 80 192 4.0 8.0 0.00 0.00 0.00 30 1005.1
20260902203046 80 132 4.0 8.0 0.00 0.00 0.00 31 1005.4
20260902201545 79 161 5.0 11.0 0.00 0.00 0.00 31 1005.3
20260902200048 78 142 2.0 9.0 0.00 0.00 0.00 34 1005.3
20260902194543 78 144 3.0 10.0 0.00 0.00 0.00 35 1005.6
20260902193045 77 191 3.0 7.0 0.00 0.00 0.00 36 1006.0
20260902191542 77 198 4.0 9.0 0.00 0.00 0.00 36 1005.9
20260902190052 77 189 4.0 8.0 0.00 0.00 0.00 35 1006.1
20260902184623 77 241 2.0 8.0 0.00 0.00 0.00 34 1006.5
20260902183045 77 184 4.0 10.0 0.00 0.00 0.00 35 1006.4
20260902181553 76 164 4.0 10.0 0.00 0.00 0.00 35 1006.5
20260902174548 75 213 6.0 10.0 0.00 0.00 0.00 38 1006.8
20260902173043 74 205 5.0 8.0 0.00 0.00 0.00 39 1006.8
20260902171558 74 187 4.0 9.0 0.00 0.00 0.00 39 1006.7
20260902170041 73 198 5.0 8.0 0.00 0.00 0.00 41 1006.7
20260902164547 71 191 0.0 3.0 0.00 0.00 0.00 42 1006.8
20260902163046 69 190 0.0 3.0 0.00 0.00 0.00 44 1006.7
20260902161551 68 0 0.0 4.0 0.00 0.00 0.00 46 1006.9
20260902160050 65 190 3.0 6.0 0.00 0.00 0.00 51 1007.2
20260902154546 61 179 3.0 7.0 0.00 0.00 0.00 56 1007.3
20260902153042 60 212 4.0 7.0 0.00 0.00 0.00 59 1007.5
20260902151551 59 194 3.0 5.0 0.00 0.00 0.00 60 1007.7
20260902150047 59 184 3.0 5.0 0.00 0.00 0.00 59 1007.6
20260902144543 58 184 1.0 3.0 0.00 0.00 0.00 60 1007.6
20260902143042 58 184 1.0 5.0 0.00 0.00 0.00 60 1007.9
20260902141548 57 184 2.0 5.0 0.00 0.00 0.00 61 1008.1
20260902140045 56 186 1.0 4.0 0.00 0.00 0.00 62 1008.0
20260902134546 55 189 4.0 6.0 0.00 0.00 0.00 62 1008.2
20260902133048 55 199 3.0 6.0 0.00 0.00 0.00 63 1007.9
20260902131543 54 205 4.0 6.0 0.00 0.00 0.00 63 1007.9
20260902130044 54 209 4.0 5.0 0.00 0.00 0.00 63 1007.8
20260902124550 55 211 3.0 4.0 0.00 0.00 0.00 61 1007.9
20260902123044 55 211 1.0 3.0 0.00 0.00 0.00 61 1007.9
20260902121544 54 211 2.0 4.0 0.00 0.00 0.00 62 1008.2
20260902114607 52 0 0.0 4.0 0.00 0.00 0.00 64 1008.6
20260902113053 52 213 0.0 3.0 0.00 0.00 0.00 65 1008.6
20260902111559 51 0 0.0 4.0 0.00 0.00 0.00 63 1008.5
20260902110043 52 213 2.0 6.0 0.00 0.00 0.00 63 1008.7
20260902104542 52 222 4.0 7.0 0.00 0.00 0.00 62 1008.6
20260902103113 54 227 4.0 8.0 0.00 0.00 0.00 60 1008.4
20260902101546 56 178 1.0 4.0 0.00 0.00 0.00 57 1008.0
20260902100045 57 179 5.0 7.0 0.00 0.00 0.00 56 1008.0
20260902094545 57 139 2.0 4.0 0.00 0.00 0.00 56 1008.0
20260902093101 58 133 2.0 5.0 0.00 0.00 0.00 55 1008.2
20260902091553 58 132 2.0 5.0 0.00 0.00 0.00 55 1008.4
20260902090055 58 126 1.0 8.0 0.00 0.00 0.00 55 1008.4
20260902084546 58 119 2.0 6.0 0.00 0.00 0.00 56 1008.6
20260902083045 58 151 1.0 3.0 0.00 0.00 0.00 55 1008.7
20260902081550 58 151 0.0 5.0 0.00 0.00 0.00 54 1008.7
20260902080044 58 153 1.0 6.0 0.00 0.00 0.00 54 1008.7
20260902074555 59 165 1.0 7.0 0.00 0.00 0.00 53 1008.9
20260902073047 60 188 5.0 8.0 0.00 0.00 0.00 49 1009.2
20260902071546 63 202 6.0 9.0 0.00 0.00 0.00 47 1009.2
20260902070048 64 161 5.0 14.0 0.00 0.00 0.00 46 1009.0
20260902064541 64 119 6.0 12.0 0.00 0.00 0.00 45 1008.7
20260902063044 65 112 6.0 11.0 0.00 0.00 0.00 45 1008.9
20260902061548 65 121 7.0 12.0 0.00 0.00 0.00 44 1008.9
20260902060059 65 99 7.0 12.0 0.00 0.00 0.00 43 1008.8
20260902054550 66 124 6.0 12.0 0.00 0.00 0.00 43 1009.0
20260902053059 66 113 7.0 11.0 0.00 0.00 0.00 42 1009.1
20260902051547 66 109 7.0 12.0 0.00 0.00 0.00 41 1009.0
20260902050050 66 123 6.0 10.0 0.00 0.00 0.00 40 1009.0
20260902044549 66 127 6.0 10.0 0.00 0.00 0.00 40 1009.2
20260902043058 66 104 8.0 11.0 0.00 0.00 0.00 39 1008.9
20260902041550 66 111 5.0 8.0 0.00 0.00 0.00 40 1008.9
20260902040054 66 132 2.0 7.0 0.00 0.00 0.00 40 1009.1
20260902034559 66 135 4.0 8.0 0.00 0.00 0.00 40 1009.0
20260902033054 67 130 4.0 9.0 0.00 0.00 0.00 39 1009.0
20260902031554 68 134 4.0 10.0 0.00 0.00 0.00 38 1009.1
20260902030053 69 127 4.0 8.0 0.00 0.00 0.00 36 1009.2
20260902024546 69 134 2.0 5.0 0.00 0.00 0.00 36 1009.0
20260902023048 70 136 2.0 4.0 0.00 0.00 0.00 35 1009.0
20260902021542 71 138 1.0 4.0 0.00 0.00 0.00 34 1009.0
20260902020058 73 139 1.0 4.0 0.00 0.00 0.00 33 1008.8